Time,TemperatureF,DewpointF,PressureIn,WindDirection,WindDirectionDegrees,WindSpeedMPH,WindSpeedGustMPH,Humidity,HourlyPrecipIn,Conditions,Clouds,dailyrainin,SoftwareType,DateUTC
2013-08-05 00:06:00,64.5,56.0,30.03,NNE,26,0.0,0.0,75,0.00,,,0.00,weatherlink.com 1.10,2013-08-05 07:06:00,
2013-08-05 00:21:00,63.2,56.0,30.03,NNE,26,0.0,0.0,77,0.00,,,0.00,weatherlink.com 1.10,2013-08-05 07:21:00,
2013-08-05 00:36:00,62.6,56.0,30.04,NNE,26,0.0,0.0,80,0.00,,,0.00,weatherlink.com 1.10,2013-08-05 07:36:00,
2013-08-05 00:51:00,62.1,56.0,30.04,NNE,25,0.0,0.0,80,0.00,,,0.00,weatherlink.com 1.10,2013-08-05 07:51:00,
2013-08-05 01:06:00,62.0,56.0,30.04,NNE,26,0.0,0.0,80,0.00,,,0.00,weatherlink.com 1.10,2013-08-05 08:06:00,
2013-08-05 01:21:00,61.6,55.0,30.04,NNE,26,0.0,0.0,80,0.00,,,0.00,weatherlink.com 1.10,2013-08-05 08:21:00,
2013-08-05 01:36:00,61.2,55.0,30.04,NNE,26,0.0,0.0,81,0.00,,,0.00,weatherlink.com 1.10,2013-08-05 08:36:00,
2013-08-05 01:51:00,60.8,55.0,30.04,NNE,26,0.0,0.0,82,0.00,,,0.00,weatherlink.com 1.10,2013-08-05 08:51:00,
2013-08-05 02:06:00,60.1,55.0,30.04,NNE,26,0.0,0.0,83,0.00,,,0.00,weatherlink.com 1.10,2013-08-05 09:06:00,
2013-08-05 02:21:00,59.5,55.0,30.04,NNE,26,0.0,0.0,84,0.00,,,0.00,weatherlink.com 1.10,2013-08-05 09:21:00,
2013-08-05 02:52:00,59.1,55.0,30.04,NNE,26,0.0,0.0,86,0.00,,,0.00,weatherlink.com 1.10,2013-08-05 09:52:00,
2013-08-05 03:06:00,58.6,55.0,30.05,NNE,26,0.0,0.0,86,0.00,,,0.00,weatherlink.com 1.10,2013-08-05 10:06:00,
2013-08-05 03:21:00,58.4,55.0,30.05,NNE,26,0.0,0.0,87,0.00,,,0.00,weatherlink.com 1.10,2013-08-05 10:21:00,
2013-08-05 03:36:00,57.9,54.0,30.05,NNE,26,0.0,0.0,88,0.00,,,0.00,weatherlink.com 1.10,2013-08-05 10:36:00,
2013-08-05 03:52:00,57.5,54.0,30.04,NNE,26,0.0,0.0,89,0.00,,,0.00,weatherlink.com 1.10,2013-08-05 10:52:00,
2013-08-05 04:06:00,57.5,54.0,30.04,NNE,26,0.0,0.0,89,0.00,,,0.00,weatherlink.com 1.10,2013-08-05 11:06:00,
2013-08-05 04:37:00,56.6,54.0,30.05,NNE,26,0.0,0.0,90,0.00,,,0.00,weatherlink.com 1.10,2013-08-05 11:37:00,
2013-08-05 04:51:00,56.1,53.0,30.05,NNE,26,0.0,0.0,90,0.00,,,0.00,weatherlink.com 1.10,2013-08-05 11:51:00,
2013-08-05 05:07:00,55.9,54.0,30.05,NNE,26,0.0,0.0,92,0.00,,,0.00,weatherlink.com 1.10,2013-08-05 12:07:00,
2013-08-05 05:22:00,55.9,54.0,30.05,NNE,26,0.0,0.0,93,0.00,,,0.00,weatherlink.com 1.10,2013-08-05 12:22:00,
2013-08-05 05:37:00,55.9,54.0,30.05,NNE,25,0.0,0.0,92,0.00,,,0.00,weatherlink.com 1.10,2013-08-05 12:37:00,
2013-08-05 05:52:00,56.1,54.0,30.06,NNE,26,0.0,0.0,92,0.00,,,0.00,weatherlink.com 1.10,2013-08-05 12:52:00,
2013-08-05 06:07:00,55.9,54.0,30.06,NNE,27,0.0,0.0,92,0.00,,,0.00,weatherlink.com 1.10,2013-08-05 13:07:00,
2013-08-05 06:22:00,55.7,54.0,30.06,NNE,27,0.0,0.0,93,0.00,,,0.00,weatherlink.com 1.10,2013-08-05 13:22:00,
2013-08-05 06:37:00,55.7,54.0,30.07,NNE,27,0.0,0.0,93,0.00,,,0.00,weatherlink.com 1.10,2013-08-05 13:37:00,
2013-08-05 06:52:00,55.9,54.0,30.07,NNE,27,0.0,0.0,93,0.00,,,0.00,weatherlink.com 1.10,2013-08-05 13:52:00,
2013-08-05 07:07:00,56.2,54.0,30.07,NNE,26,0.0,0.0,93,0.00,,,0.00,weatherlink.com 1.10,2013-08-05 14:07:00,
2013-08-05 07:22:00,56.7,55.0,30.08,NNE,26,0.0,0.0,93,0.00,,,0.00,weatherlink.com 1.10,2013-08-05 14:22:00,
2013-08-05 07:37:00,57.8,55.0,30.08,NNE,26,0.0,0.0,91,0.00,,,0.00,weatherlink.com 1.10,2013-08-05 14:37:00,
2013-08-05 07:52:00,59.5,56.0,30.08,West,280,0.0,0.0,89,0.00,,,0.00,weatherlink.com 1.10,2013-08-05 14:52:00,
2013-08-05 08:07:00,64.2,59.0,30.08,SSW,212,0.0,0.0,83,0.00,,,0.00,weatherlink.com 1.10,2013-08-05 15:07:00,
2013-08-05 08:22:00,66.2,58.0,30.08,NW,315,0.0,0.0,74,0.00,,,0.00,weatherlink.com 1.10,2013-08-05 15:22:00,
2013-08-05 08:37:00,66.0,58.0,30.08,ESE,109,0.0,0.0,75,0.00,,,0.00,weatherlink.com 1.10,2013-08-05 15:37:00,
2013-08-05 09:07:00,68.7,59.0,30.08,SW,228,0.0,0.0,71,0.00,,,0.00,weatherlink.com 1.10,2013-08-05 16:07:00,
2013-08-05 09:22:00,70.1,59.0,30.08,South,169,0.0,0.0,68,0.00,,,0.00,weatherlink.com 1.10,2013-08-05 16:22:00,
2013-08-05 09:37:00,72.0,60.0,30.08,SW,224,0.0,0.0,66,0.00,,,0.00,weatherlink.com 1.10,2013-08-05 16:37:00,
2013-08-05 09:52:00,73.9,60.0,30.08,NE,51,0.0,0.0,62,0.00,,,0.00,weatherlink.com 1.10,2013-08-05 16:52:00,
2013-08-05 10:22:00,74.5,61.0,30.07,North,360,0.0,4.0,62,0.00,,,0.00,weatherlink.com 1.10,2013-08-05 17:22:00,
2013-08-05 10:52:00,77.6,62.0,30.07,NNE,19,0.0,0.0,58,0.00,,,0.00,weatherlink.com 1.10,2013-08-05 17:52:00,
2013-08-05 11:23:00,80.6,62.0,30.06,NNE,16,1.0,2.0,53,0.00,,,0.00,weatherlink.com 1.10,2013-08-05 18:23:00,
2013-08-05 11:38:00,79.9,61.0,30.06,NW,320,0.0,2.0,53,0.00,,,0.00,weatherlink.com 1.10,2013-08-05 18:38:00,
2013-08-05 11:53:00,81.6,62.0,30.06,ENE,67,0.0,0.0,52,0.00,,,0.00,weatherlink.com 1.10,2013-08-05 18:53:00,
2013-08-05 12:23:00,81.5,60.0,30.06,NNE,33,1.0,7.0,49,0.00,,,0.00,weatherlink.com 1.10,2013-08-05 19:23:00,
2013-08-05 12:38:00,82.4,61.0,30.05,East,101,0.0,5.0,49,0.00,,,0.00,weatherlink.com 1.10,2013-08-05 19:38:00,
2013-08-05 13:23:00,85.7,61.0,30.04,NW,320,0.0,5.0,44,0.00,,,0.00,weatherlink.com 1.10,2013-08-05 20:23:00,
2013-08-05 13:38:00,85.8,61.0,30.04,NE,41,0.0,6.0,43,0.00,,,0.00,weatherlink.com 1.10,2013-08-05 20:38:00,
2013-08-05 13:53:00,87.5,60.0,30.03,NNW,335,3.0,6.0,40,0.00,,,0.00,weatherlink.com 1.10,2013-08-05 20:53:00,
2013-08-05 14:08:00,87.9,60.0,30.02,ESE,119,0.0,5.0,39,0.00,,,0.00,weatherlink.com 1.10,2013-08-05 21:08:00,
2013-08-05 14:23:00,88.0,59.0,30.02,NNE,12,3.0,9.0,38,0.00,,,0.00,weatherlink.com 1.10,2013-08-05 21:23:00,
2013-08-05 14:38:00,88.4,58.0,30.02,NE,41,0.0,4.0,36,0.00,,,0.00,weatherlink.com 1.10,2013-08-05 21:38:00,
2013-08-05 14:53:00,88.7,58.0,30.01,North,359,2.0,6.0,35,0.00,,,0.00,weatherlink.com 1.10,2013-08-05 21:53:00,
2013-08-05 15:08:00,88.4,58.0,30.01,ENE,67,0.0,8.0,36,0.00,,,0.00,weatherlink.com 1.10,2013-08-05 22:08:00,
2013-08-05 15:23:00,89.4,58.0,30.00,NNE,31,4.0,6.0,34,0.00,,,0.00,weatherlink.com 1.10,2013-08-05 22:23:00,
2013-08-05 15:38:00,90.2,59.0,30.00,NNE,27,0.0,7.0,35,0.00,,,0.00,weatherlink.com 1.10,2013-08-05 22:38:00,
2013-08-05 15:53:00,90.3,58.0,29.99,NW,307,0.0,8.0,33,0.00,,,0.00,weatherlink.com 1.10,2013-08-05 22:53:00,
2013-08-05 16:08:00,90.0,58.0,29.98,East,101,0.0,6.0,34,0.00,,,0.00,weatherlink.com 1.10,2013-08-05 23:08:00,
2013-08-05 16:23:00,89.8,59.0,29.98,NNE,16,2.0,5.0,35,0.00,,,0.00,weatherlink.com 1.10,2013-08-05 23:23:00,
2013-08-05 16:38:00,90.1,58.0,29.98,ENE,65,0.0,5.0,34,0.00,,,0.00,weatherlink.com 1.10,2013-08-05 23:38:00,
2013-08-05 16:53:00,90.9,57.0,29.97,ENE,68,0.0,6.0,32,0.00,,,0.00,weatherlink.com 1.10,2013-08-05 23:53:00,
2013-08-05 17:08:00,90.7,55.0,29.97,NW,324,0.0,5.0,30,0.00,,,0.00,weatherlink.com 1.10,2013-08-06 00:08:00,
2013-08-05 17:23:00,90.6,57.0,29.96,NW,315,0.0,4.0,32,0.00,,,0.00,weatherlink.com 1.10,2013-08-06 00:23:00,
2013-08-05 17:38:00,91.6,57.0,29.96,NNW,337,0.0,4.0,31,0.00,,,0.00,weatherlink.com 1.10,2013-08-06 00:38:00,
2013-08-05 17:53:00,91.5,58.0,29.96,NNE,30,0.0,2.0,32,0.00,,,0.00,weatherlink.com 1.10,2013-08-06 00:53:00,
2013-08-05 18:38:00,91.0,57.0,29.95,NNE,29,0.0,0.0,32,0.00,,,0.00,weatherlink.com 1.10,2013-08-06 01:38:00,
2013-08-05 18:54:00,90.5,59.0,29.95,NW,322,0.0,5.0,34,0.00,,,0.00,weatherlink.com 1.10,2013-08-06 01:54:00,
2013-08-05 19:09:00,90.6,58.0,29.95,NNE,27,0.0,0.0,33,0.00,,,0.00,weatherlink.com 1.10,2013-08-06 02:09:00,
2013-08-05 19:54:00,87.2,61.0,29.96,NW,320,0.0,0.0,42,0.00,,,0.00,weatherlink.com 1.10,2013-08-06 02:54:00,
2013-08-05 20:09:00,84.8,61.0,29.96,WNW,300,0.0,0.0,45,0.00,,,0.00,weatherlink.com 1.10,2013-08-06 03:09:00,
2013-08-05 20:24:00,83.0,62.0,29.96,NNW,345,0.0,0.0,49,0.00,,,0.00,weatherlink.com 1.10,2013-08-06 03:24:00,
2013-08-05 20:54:00,78.5,62.0,29.97,North,357,0.0,0.0,57,0.00,,,0.00,weatherlink.com 1.10,2013-08-06 03:54:00,
2013-08-05 21:09:00,77.4,61.0,29.97,NNE,29,0.0,0.0,58,0.00,,,0.00,weatherlink.com 1.10,2013-08-06 04:09:00,
2013-08-05 21:24:00,76.1,62.0,29.98,NE,44,0.0,0.0,61,0.00,,,0.00,weatherlink.com 1.10,2013-08-06 04:24:00,
2013-08-05 21:39:00,74.8,61.0,29.98,NE,39,0.0,0.0,63,0.00,,,0.00,weatherlink.com 1.10,2013-08-06 04:39:00,
2013-08-05 21:54:00,74.0,61.0,29.98,NNW,328,0.0,0.0,63,0.00,,,0.00,weatherlink.com 1.10,2013-08-06 04:54:00,
2013-08-05 22:09:00,73.5,60.0,29.99,WNW,298,0.0,0.0,62,0.00,,,0.00,weatherlink.com 1.10,2013-08-06 05:09:00,
2013-08-05 22:24:00,72.4,59.0,29.99,NNW,328,0.0,0.0,63,0.00,,,0.00,weatherlink.com 1.10,2013-08-06 05:24:00,
2013-08-05 22:39:00,71.7,58.0,29.99,NW,315,0.0,0.0,63,0.00,,,0.00,weatherlink.com 1.10,2013-08-06 05:39:00,
2013-08-05 22:54:00,71.0,58.0,29.99,NNE,23,0.0,0.0,64,0.00,,,0.00,weatherlink.com 1.10,2013-08-06 05:54:00,
2013-08-05 23:09:00,70.7,58.0,29.99,NNE,29,0.0,0.0,64,0.00,,,0.00,weatherlink.com 1.10,2013-08-06 06:09:00,
2013-08-05 23:24:00,70.3,57.0,29.99,NNE,13,0.0,0.0,64,0.00,,,0.00,weatherlink.com 1.10,2013-08-06 06:24:00,
2013-08-05 23:39:00,69.9,57.0,30.00,NNE,26,0.0,0.0,64,0.00,,,0.00,weatherlink.com 1.10,2013-08-06 06:39:00,
2013-08-05 23:54:00,69.3,57.0,30.00,NE,47,0.0,0.0,65,0.00,,,0.00,weatherlink.com 1.10,2013-08-06 06:54:00,